Simultaneous Nadir Overpasses (SNOs) Predictions

Prediction of SNOs between FY3D and AQUA Satellite Orbit:

Table of predicted SNOs for the next 14.0 days since TLE Epoch: 9/16/2023
Index Date (FY3D) Time (FY3D) Lat,Lon (FY3D) SZA (FY3D ) Date (AQUA) Time (AQUA) Lat,Lon (AQUA) SZA (AQUA ) Distance(km) Time Diff (sec)
1 09/17/2023 07:59:15 -78.90,-139.12 102.92 09/17/2023 07:59:32 -78.90,-139.05 102.93 1.52 17
2 09/17/2023 08:49:51 78.55, 30.53 76.63 09/17/2023 08:48:48 78.55, 30.58 76.63 1.19 63
3 09/19/2023 20:54:08 -79.07, 26.02 101.72 09/19/2023 20:55:17 -79.07, 26.01 101.74 0.34 69
4 09/19/2023 21:44:44 78.73,-164.29 77.83 09/19/2023 21:44:33 78.73,-164.31 77.83 0.45 11
5 09/22/2023 10:39:38 78.95, 0.56 79.09 09/22/2023 10:40:18 78.95, 0.51 79.09 1.33 40
6 09/22/2023 11:30:13 -78.55, 170.48 101.42 09/22/2023 11:29:32 -78.56, 170.39 101.40 2.14 41
7 09/25/2023 00:25:07 -78.78, -24.63 100.15 09/25/2023 00:25:16 -78.79, -24.76 100.14 2.93 9
8 09/25/2023 01:15:42 78.43, 144.91 79.41 09/25/2023 01:14:31 78.44, 144.81 79.44 2.38 71
9 09/27/2023 13:20:00 -79.00, 140.17 98.88 09/27/2023 13:20:58 -79.01, 140.04 98.88 3.00 58
10 09/27/2023 14:10:36 78.66, -50.24 80.69 09/27/2023 14:10:14 78.67, -50.34 80.71 2.37 22



Historial Predications of SNOs between FY3D and AQUA
